THOR ABLESTAR DEB, 648

Orbit data source: Space-Track

THOR ABLESTAR DEB, 648 is space debris in LEO originally from a launch on Thu, 29 Jun 1961 UTC launched from the Air Force Eastern Test Range (AFETR). Debris objects in space refer to the collection of defunct objects orbiting the Earth. Examples of debris include non-operational satellites, rocket bodies, and fragments generated from explosions, collisions, or faulty payload assembly.

Loading next visibility...
Identifier
648, 1961-015GZ
Orbit
LEO
Country
Flag of USUS
Related business
Manufacturer
Unknown
Mission
Spacecraft
Bus & Motor
Unknown
Mass
Unknown
Launch date (UTC)
1961-06-29 (65 years ago)
Launch vehicle
Unknown
Launch site
Air Force Eastern Test Range (AFETR)
Object type
Payload
Rocket body
Debris
Shape & HBR
Unknown shape, 0.1 m
Radar Cross Section
Medium (>0.1 m² and <1 m²)

Expand to show TLE details & history
Last TLE update: 7 hours ago

TLE from 7 hours ago
0 THOR ABLESTAR DEB
1 00648U 61015GZ  26255.90320155  .00000571  00000-0  76566-3 0  9992
2 00648  65.8727 179.8414 0198457 184.2999 240.0870 13.59709102210905
Epoch: 2026-09-12T21:40Z
TLE epoch observation values (Epoch: 2026-09-12T21:40:36.613Z)
Latitude
54.12148°
Longitude
-99.18679°
Altitude
1,120.293 km
Speed
7.261 km/s
True Right ascension
14h 31m 29s
True Declination
53° 57' 57"
Sunlit
Object was in daylight at epoch
Visualization orbit readout
Latitude
Unknown
Longitude
Unknown
Altitude
Unknown
Speed
Unknown
Apparent Right ascension
Unknown
Apparent Declination
Unknown
Sunlit
N/A
Visualization observer readout
Local Sidereal Time
21:01:07
Azimuth
Unknown
Elevation
Unknown
Doppler factor
Unknown
Orbital elements
Apogee altitude
1,182.397 km
Perigee altitude
888.148 km
Semi-major axis
7,413.409 km
Eccentricity
0.01985
Inclination
65.8727°
RAAN
179.8414°
Arg. of periapsis
184.2999°
True anomaly
238.14028°
Mean anomaly
240.087°
Eccentric anomaly
239.1112°
Mean motion
3.40029 °/min
Orbital period
105.87 mins
BSTAR
0.00076566
Loading maneuver chart data...
Computing Atmospheric mass density...

Documentation

Showing up to 5 results
|